Regional Weather Roundup
Issued by NWS

Home | Current Version | Previous Version | Text Only | Print | Product List | Glossary On
Versions: 1 2 3 4 5 6 7 8 9 10 11 12 13 14 15 16 17 18 19 20 21 22 23 24 25 26 27 28 29 30 31 32 33 34 35 36 37 38 39 40 41 42 43 44 45 46 47 48 49 50
923
ASUS44 KLIX 290301
RWRLA
LOUISIANA WEATHER ROUNDUP
NATIONAL WEATHER SERVICE NEW ORLEANS LA
900 PM CST WED JAN 28 2015

NOTE: "FAIR" INDICATES FEW OR NO CLOUDS BELOW 12,000 FEET WITH NO
      SIGNIFICANT WEATHER AND/OR OBSTRUCTIONS TO VISIBILITY.
      SKY/WX - SKY CONDITION AND SIGNIFICANT WEATHER.
      TMP - AIR TEMPERATURE.    DP   - DEWPOINT TEMPERATURE.
      RH  - RELATIVE HUMIDITY.  PRES - PRESSURE.
      HX  - HEAT INDEX.         WCI  - WIND CHILL INDEX.

*  THESE STATIONS ARE NOT NWS OR FAA STATIONS AND ARE NOT UNDER
   NWS QUALITY CONTROL.

LAZ040-048-061>063-065-066-069-290400-
SOUTHEAST LOUISIANA

CITY           SKY/WX    TMP DP  RH WIND       PRES   REMARKS
N.O. AUDUBON   NOT AVBL
N.O. INTL ARPT PTCLDY    53  43  68 S8        30.22F
N.O. LAKEFRONT CLEAR     54  43  66 SE9       30.23F
N.O. DOWNTOWN* NOT AVBL
SLIDELL        PTCLDY    49  42  77 S3        30.22F
BATON ROUGE    PTCLDY    55  41  59 SE7       30.19S
BOOTHVILLE     CLEAR     51  49  92 CALM      30.25F
BELLE CHASSE   PTCLDY    53  45  74 SE7       30.22F
BOGALUSA*        N/A     54  41  62 S7        30.23F
GALLIANO*      NOT AVBL
NEW ROADS*     NOT AVBL
GONZALES*      NOT AVBL
HAMMOND*       NOT AVBL
HOUMA*         CLEAR     48  46  93 SE5       30.22F
PORT FOURCHON* CLEAR     61  54  77 SE9       30.26F

$$

LAZ041-044-053-054-290400-
SOUTHWEST LOUISIANA

CITY           SKY/WX    TMP DP  RH WIND       PRES   REMARKS
LAKE CHARLES   CLEAR     55  53  93 S9        30.18F
LAFAYETTE      CLEAR     56  47  71 S5        30.21R
PATTERSON      CLEAR     55  46  71 SE6       30.22R
SALT POINT       N/A     55  50  83 SE7       30.20R
NEW IBERIA     PTCLDY    51  46  83 S7        30.21R
CHENAULT AIRPK CLEAR     49  47  93 SE8       30.19F

$$

LAZ027-028-290400-
CENTRAL LOUISIANA

CITY           SKY/WX    TMP DP  RH WIND       PRES   REMARKS
FORT POLK      PTCLDY    57  42  59 S8        30.17S
ALEXANDRIA INT PTCLDY    57  44  62 S9        30.16R
ALEXANDRIA     PTCLDY    59  42  53 SW7       30.18R

$$

LAZ001-002-290400-
NORTHWEST LOUISIANA

CITY           SKY/WX    TMP DP  RH WIND       PRES   REMARKS
SHREVEPORT     PTCLDY    61  44  53 S9        30.09R
BARKSDALE AFB  MOCLDY    60  43  52 S13       30.09R
DTN SHREVEPORT MOCLDY    62  42  47 S13       30.08R

$$

LAZ014-016-290400-
NORTHEAST LOUISIANA

CITY           SKY/WX    TMP DP  RH WIND       PRES   REMARKS
MONROE         MOCLDY    60  42  51 S9        30.14S
TALLULAH       MOCLDY    59  40  49 S7        30.16R

$$




USA.gov is the U.S. government's official web portal to all federal, state and local government web resources and services.